User: anonymous   Login
Location: Arezzo
(43.4170°N, 11.8830°E)
Time: 23:49:47
(UTC+02:00)
Language:

STARLINK-2709 - Orbit

View from above orbital plane
View from above orbital plane
View from above satellite
View from above satellite

Ground track
Ground track

The orbit data is extracted from the following two-line orbital elements,

1 48664C 21044AC  21269.39967696  .00008195  00000-0  54910-3 0  2699
2 48664  53.0543 207.8144 0001725  67.3342 237.6863 15.06388691    19
Epoch (UTC): 26 September 2021 09:35:32
Eccentricity: 0.0001725
inclination: 53.0543°
perigee height: 546 km
apogee height: 548 km
right ascension of ascending node: 207.8144°
argument of perigee: 67.3342°
revolutions per day: 15.06388691
mean anomaly at epoch: 237.6863°
orbit number at epoch: 1

The dashed part of the orbit path shows where the satellite is in the earth's shadow,  

DLR